Location: Alexander
(41.3564°N, 81.5960°W)
Time: 14:31:19
(UTC+00:00)

NOSS 2-1 (E) - Pass Details

Date: 24 January 2021
Orbit: 434 x 1768 km, 63.3° (Epoch: 27 February)

Event Time Altitude Azimuth Distance (km) Brightness Sun altitude
Rises 23:03:21 0° 192° (SSW) 2,536 7.2 -6.1°
Reaches altitude 10° 23:05:42 10° 180° (S) 1,583 5.9 -6.5°
Maximum altitude 23:08:40 29° 118° (ESE) 834 3.9 -7.0°
Drops below altitude 10° 23:11:35 10° 56° (ENE) 1,558 5.0 -7.5°
Enters shadow 23:11:47 - 55° (NE) 1,633 5.1 -7.6°
